This is the latest recevied weather packets stored in our database for station/object EA1ZE. If no packets are shown the sender has not sent any weather packets the latest 10 day(s).
| Time | Temp. | Humidity | Pressure | Rain* | Wind** | Luminosity | Snow |
|---|---|---|---|---|---|---|---|
| 1787499906 | 30° C | 28% | 1010 hPa | 0 mm | - | - | - |
| 1787499004 | 30° C | 28% | 1010.1 hPa | 0 mm | - | - | - |
| 1787498104 | 30° C | 28% | 1010.2 hPa | 0 mm | - | - | - |
| 1787497201 | 30° C | 28% | 1010.2 hPa | 0 mm | - | - | - |
| 1787496365 | 30° C | 28% | 1010.3 hPa | 0 mm | - | - | - |
| 1787495472 | 30° C | 27% | 1010.4 hPa | 0 mm | - | - | - |
| 1787494559 | 30.56° C | 27% | 1010.5 hPa | 0 mm | - | - | - |
| 1787493658 | 30.56° C | 27% | 1010.7 hPa | 0 mm | - | - | - |
| 1787492759 | 30° C | 27% | 1010.7 hPa | 0 mm | - | - | - |
| 1787491851 | 30° C | 26% | 1010.9 hPa | 0 mm | - | - | - |
| 1787490953 | 29.44° C | 26% | 1011 hPa | 0 mm | - | - | - |
| 1787490047 | 30° C | 26% | 1011.2 hPa | 0 mm | - | - | - |
| 1787489161 | 29.44° C | 27% | 1011.4 hPa | 0 mm | - | - | - |
| 1787488248 | 29.44° C | 28% | 1011.5 hPa | 0 mm | - | - | - |
| 1787487338 | 28.89° C | 28% | 1011.6 hPa | 0 mm | - | - | - |
| 1787486437 | 28.33° C | 29% | 1011.8 hPa | 0 mm | - | - | - |
| 1787485531 | 27.78° C | 30% | 1012.1 hPa | 0 mm | - | - | - |
| 1787484633 | 27.78° C | 32% | 1012.2 hPa | 0 mm | - | - | - |
| 1787483727 | 27.22° C | 31% | 1012.4 hPa | 0 mm | - | - | - |
| 1787482830 | 27.22° C | 31% | 1012.6 hPa | 0 mm | - | - | - |
| 1787481920 | 26.67° C | 33% | 1012.8 hPa | 0 mm | - | - | - |
| 1787481018 | 26.67° C | 35% | 1013 hPa | 0 mm | - | - | - |
| 1787480117 | 26.11° C | 35% | 1012.9 hPa | 0 mm | - | - | - |
| 1787479224 | 25.56° C | 35% | 1013 hPa | 0 mm | - | - | - |
| 1787478314 | 25.56° C | 36% | 1013 hPa | 0 mm | - | - | - |
* Rain latest hour (hover to see other rain measurements)
** Current wind speed in m/s (hover to see current wind gust speed)